TimeCST,TemperatureF,Dew PointF,Humidity,Sea Level PressureIn,VisibilityMPH,Wind Direction,Wind SpeedMPH,Gust SpeedMPH,PrecipitationIn,Events,Conditions,WindDirDegrees,DateUTC
12:52 AM,21.9,14.0,72,30.71,10.0,Calm,Calm,-,N/A,,Clear,0,2013-11-13 06:52:00
1:52 AM,19.9,14.0,78,30.70,10.0,Calm,Calm,-,N/A,,Clear,0,2013-11-13 07:52:00
2:52 AM,19.9,14.0,78,30.69,10.0,Calm,Calm,-,N/A,,Clear,0,2013-11-13 08:52:00
3:52 AM,19.0,14.0,81,30.69,10.0,Calm,Calm,-,N/A,,Clear,0,2013-11-13 09:52:00
4:52 AM,19.0,14.0,81,30.69,10.0,South,4.6,-,N/A,,Clear,170,2013-11-13 10:52:00
5:52 AM,19.9,15.1,81,30.66,10.0,SSE,9.2,-,N/A,,Clear,160,2013-11-13 11:52:00
6:52 AM,21.0,14.0,74,30.66,10.0,South,10.4,-,N/A,,Clear,170,2013-11-13 12:52:00
7:52 AM,24.1,16.0,71,30.66,10.0,South,10.4,-,N/A,,Clear,170,2013-11-13 13:52:00
8:52 AM,28.9,17.1,61,30.66,10.0,SSE,10.4,-,N/A,,Clear,160,2013-11-13 14:52:00
9:52 AM,33.1,17.1,52,30.64,10.0,South,15.0,-,N/A,,Clear,190,2013-11-13 15:52:00
10:52 AM,37.0,17.1,44,30.62,10.0,South,12.7,-,N/A,,Clear,180,2013-11-13 16:52:00
11:52 AM,41.0,17.1,38,30.58,10.0,SSW,12.7,-,N/A,,Clear,210,2013-11-13 17:52:00
12:52 PM,45.0,14.0,29,30.53,10.0,South,12.7,-,N/A,,Clear,180,2013-11-13 18:52:00
1:52 PM,46.9,12.0,24,30.48,10.0,South,11.5,-,N/A,,Clear,190,2013-11-13 19:52:00
2:52 PM,48.0,12.9,24,30.45,10.0,SSW,13.8,-,N/A,,Clear,200,2013-11-13 20:52:00
3:52 PM,48.0,16.0,28,30.43,10.0,South,11.5,-,N/A,,Clear,190,2013-11-13 21:52:00
4:52 PM,43.0,16.0,34,30.41,10.0,South,10.4,-,N/A,,Clear,180,2013-11-13 22:52:00
5:52 PM,39.0,16.0,39,30.40,10.0,South,9.2,-,N/A,,Clear,180,2013-11-13 23:52:00
6:52 PM,39.9,17.1,40,30.38,10.0,SSE,11.5,-,N/A,,Clear,160,2013-11-14 00:52:00
7:52 PM,39.0,18.0,43,30.37,10.0,South,15.0,-,N/A,,Clear,170,2013-11-14 01:52:00
8:52 PM,37.9,18.0,45,30.35,10.0,South,13.8,-,N/A,,Clear,170,2013-11-14 02:52:00
9:52 PM,37.0,18.0,46,30.34,10.0,South,13.8,-,N/A,,Clear,180,2013-11-14 03:52:00
10:52 PM,36.0,18.0,48,30.32,10.0,South,12.7,-,N/A,,Clear,180,2013-11-14 04:52:00
11:52 PM,35.1,18.0,50,30.30,10.0,South,13.8,-,N/A,,Clear,180,2013-11-14 05:52:00